North Vernon, Indiana, United States (47265)
Lat: 39.01N, Lon: 85.62W
Wx Zone: INZ072
Local Info
Past Weather Observations for Sunday, March 1, 2015

NOTE: This archive is for the closest National Weather Service station to North Vernon. Information may differ from the station used for current weather conditions.

Click here for Long-term Archive

Time Weather Temperature Dewpoint Humidity Pressure Winds Precip Visibility
23:53
Mostly Cloudy
27°F / -3°C 19°F / -7°C 74% 30.36 in
(1028 mb)
NW 18.4 mph
(NW 30 kph)
- 10SM
23:09
Mostly Cloudy
28°F / -2°C 21°F / -6°C 74% 30.36 in
(1028 mb)
NW 11.5 mph
(NW 19 kph)
- 8SM
22:53
Mostly Cloudy
28°F / -2°C 23°F / -5°C 80% 30.36 in
(1028 mb)
WNW 8.1 mph
(WNW 13 kph)
- 8SM
22:44
Mostly Cloudy
28°F / -2°C 23°F / -5°C 80% 30.36 in
(1028 mb)
WNW 9.2 mph
(WNW 15 kph)
- 8SM
22:08
Partly Cloudy
30°F / -1°C 23°F / -5°C 75% 30.33 in
(1027 mb)
NW 10.4 mph
(NW 17 kph)
- 8SM
21:53
Mostly Cloudy
30°F / -1°C 25°F / -4°C 80% 30.33 in
(1027 mb)
NW 11.5 mph
(NW 19 kph)
- 8SM
21:40
Overcast
30°F / -1°C 25°F / -4°C 80% 30.33 in
(1027 mb)
NW 10.4 mph
(NW 17 kph)
- 7SM
20:53
Overcast
30°F / -1°C 25°F / -4°C 80% 30.3 in
(1026 mb)
NW 10.4 mph
(NW 17 kph)
- 8SM
20:32
Overcast
32°F / 0°C 27°F / -3°C 80% 30.3 in
(1026 mb)
NW 8.1 mph
(NW 13 kph)
- 8SM
19:53
Overcast
32°F / 0°C 27°F / -3°C 80% 30.3 in
(1026 mb)
NW 8.1 mph
(NW 13 kph)
- 7SM
19:23
Overcast
32°F / 0°C 27°F / -3°C 80% 30.3 in
(1026 mb)
W 8.1 mph
(W 13 kph)
- 7SM
18:53
Overcast
Hazy
34°F / 1°C 28°F / -2°C 81% 30.27 in
(1025 mb)
W 8.1 mph
(W 13 kph)
- 6SM
17:53
Overcast
Hazy
34°F / 1°C 28°F / -2°C 81% 30.24 in
(1024 mb)
Calm - 5SM
17:33
Overcast
Hazy
34°F / 1°C 28°F / -2°C 81% 30.27 in
(1025 mb)
NNW 3.5 mph
(NNW 6 kph)
- 4SM
16:53
Overcast
Hazy
34°F / 1°C 28°F / -2°C 81% 30.27 in
(1025 mb)
W 8.1 mph
(W 13 kph)
- 6SM
15:53
Overcast
Hazy
34°F / 1°C 28°F / -2°C 81% 30.27 in
(1025 mb)
Calm 0.01 in
(0.25 mm)
5SM
14:53
Overcast
Fog And Mist
34°F / 1°C 28°F / -2°C 81% 30.27 in
(1025 mb)
Calm 0.00 in
(0.00 mm)
4SM
14:41
Overcast
Light Snow
34°F / 1°C 28°F / -2°C 81% 30.27 in
(1025 mb)
Calm 0.00 in
(0.00 mm)
3SM
14:13
Overcast
Fog And Mist
34°F / 1°C 28°F / -2°C 81% 30.27 in
(1025 mb)
N 4.6 mph
(N 7 kph)
- 2 1/2SM
13:53
Overcast
Hazy
34°F / 1°C 28°F / -2°C 81% 30.3 in
(1026 mb)
N 4.6 mph
(N 7 kph)
0.00 in
(0.00 mm)
4SM
13:20
Overcast
Fog And Mist
34°F / 1°C 28°F / -2°C 81% 30.3 in
(1026 mb)
N 4.6 mph
(N 7 kph)
- 3SM
13:06
Overcast
Fog And Mist
34°F / 1°C 28°F / -2°C 81% 30.3 in
(1026 mb)
N 3.5 mph
(N 6 kph)
- 2 1/2SM
12:53
Overcast
Hazy
34°F / 1°C 28°F / -2°C 81% 30.3 in
(1026 mb)
N 3.5 mph
(N 6 kph)
- 2 1/2SM
12:03
Overcast
Hazy
34°F / 1°C 28°F / -2°C 81% 30.33 in
(1027 mb)
NNW 5.8 mph
(NNW 9 kph)
- 2 1/2SM
11:53
Overcast
Fog And Mist
34°F / 1°C 28°F / -2°C 81% 30.33 in
(1027 mb)
NNW 4.6 mph
(NNW 7 kph)
- 1 1/2SM
11:49
Overcast
Hazy
34°F / 1°C 28°F / -2°C 81% 30.33 in
(1027 mb)
N 3.5 mph
(N 6 kph)
- 1 1/2SM
11:20
Overcast
Fog And Mist
32°F / 0°C 28°F / -2°C 87% 30.33 in
(1027 mb)
Calm - 1 1/2SM
10:53
Overcast
Fog And Mist
32°F / 0°C 28°F / -2°C 87% 30.33 in
(1027 mb)
Calm 0.00 in
(0.00 mm)
2 1/2SM
10:37
Overcast
Fog And Mist
30°F / -1°C 28°F / -2°C 93% 30.33 in
(1027 mb)
Calm 0.00 in
(0.00 mm)
2SM
10:25
Overcast
Hazy
32°F / 0°C 27°F / -3°C 80% 30.33 in
(1027 mb)
Calm 0.00 in
(0.00 mm)
1 3/4SM
10:15
Overcast
Fog And Mist
30°F / -1°C 27°F / -3°C 86% 30.33 in
(1027 mb)
Calm 0.00 in
(0.00 mm)
2SM
09:53
Overcast
Light Snow
30°F / -1°C 27°F / -3°C 86% 30.36 in
(1028 mb)
N 3.5 mph
(N 6 kph)
0.01 in
(0.25 mm)
1 1/2SM
09:11
Overcast
Light Snow
30°F / -1°C 27°F / -3°C 86% 30.36 in
(1028 mb)
Calm 0.01 in
(0.25 mm)
1SM
08:53
Overcast
Light Snow
28°F / -2°C 25°F / -4°C 86% 30.36 in
(1028 mb)
Calm 0.02 in
(0.51 mm)
3/4SM
08:45
Overcast
Light Snow
28°F / -2°C 25°F / -4°C 86% 30.36 in
(1028 mb)
Calm 0.02 in
(0.51 mm)
3/4SM
08:15
Overcast
Light Snow
28°F / -2°C 25°F / -4°C 86% 30.36 in
(1028 mb)
Calm 0.01 in
(0.25 mm)
1SM
07:53
Obscured
Light Snow
28°F / -2°C 25°F / -4°C 86% 30.36 in
(1028 mb)
Calm 0.03 in
(0.76 mm)
3/4SM
07:42
Obscured
Light Snow
27°F / -3°C 25°F / -4°C 93% 30.36 in
(1028 mb)
Calm 0.03 in
(0.76 mm)
3/4SM
07:29
Obscured
Snow
27°F / -3°C 25°F / -4°C 93% 30.36 in
(1028 mb)
SE 3.5 mph
(SE 6 kph)
0.03 in
(0.76 mm)
1/2SM
07:08
Obscured
Light Snow
27°F / -3°C 23°F / -5°C 86% 30.36 in
(1028 mb)
E 3.5 mph
(E 6 kph)
0.01 in
(0.25 mm)
1SM
06:53
Obscured
Light Snow
27°F / -3°C 23°F / -5°C 86% 30.36 in
(1028 mb)
E 3.5 mph
(E 6 kph)
0.06 in
(1.52 mm)
3/4SM
06:41
Obscured
Light Snow
27°F / -3°C 23°F / -5°C 86% 30.36 in
(1028 mb)
E 3.5 mph
(E 6 kph)
0.05 in
(1.27 mm)
3/4SM
06:30
Obscured
Light Snow
27°F / -3°C 23°F / -5°C 86% 30.36 in
(1028 mb)
E 3.5 mph
(E 6 kph)
0.03 in
(0.76 mm)
1SM
05:53
Obscured
Light Snow
27°F / -3°C 23°F / -5°C 86% 30.36 in
(1028 mb)
Calm 0.07 in
(1.78 mm)
3/4SM
05:17
Obscured
Light Snow
27°F / -3°C 21°F / -6°C 80% 30.36 in
(1028 mb)
Calm 0.03 in
(0.76 mm)
3/4SM
04:53
Obscured
Light Snow
27°F / -3°C 21°F / -6°C 80% 30.36 in
(1028 mb)
Calm 0.05 in
(1.27 mm)
1SM
04:00
Obscured
Light Snow
25°F / -4°C 21°F / -6°C 86% 30.36 in
(1028 mb)
Calm 0.00 in
(0.00 mm)
1SM
03:53
Obscured
Light Snow
25°F / -4°C 21°F / -6°C 86% 30.36 in
(1028 mb)
Calm 0.05 in
(1.27 mm)
1SM
03:27
Overcast
Light Snow
25°F / -4°C 21°F / -6°C 86% 30.39 in
(1029 mb)
Calm 0.03 in
(0.76 mm)
1 3/4SM
03:23
Overcast
Light Snow
25°F / -4°C 21°F / -6°C 86% 30.39 in
(1029 mb)
Calm 0.02 in
(0.51 mm)
2SM
02:53
Overcast
Light Snow
25°F / -4°C 21°F / -6°C 86% 30.39 in
(1029 mb)
Calm 0.05 in
(1.27 mm)
1 1/4SM
02:28
Overcast
Light Snow
25°F / -4°C 21°F / -6°C 86% 30.39 in
(1029 mb)
Calm 0.02 in
(0.51 mm)
1 1/2SM
02:00
Overcast
Light Snow
25°F / -4°C 21°F / -6°C 86% 30.42 in
(1030 mb)
ESE 3.5 mph
(ESE 6 kph)
0.00 in
(0.00 mm)
1 1/4SM
01:53
Overcast
Light Snow
25°F / -4°C 21°F / -6°C 86% 30.42 in
(1030 mb)
ESE 3.5 mph
(ESE 6 kph)
0.07 in
(1.78 mm)
1 1/2SM
01:36
Obscured
Light Snow
25°F / -4°C 19°F / -7°C 80% 30.42 in
(1030 mb)
SE 3.5 mph
(SE 6 kph)
0.06 in
(1.52 mm)
1SM
01:26
Obscured
Light Snow
25°F / -4°C 19°F / -7°C 80% 30.42 in
(1030 mb)
SE 4.6 mph
(SE 7 kph)
0.05 in
(1.27 mm)
3/4SM
00:53
Obscured
Light Snow
25°F / -4°C 19°F / -7°C 80% 30.42 in
(1030 mb)
SE 3.5 mph
(SE 6 kph)
0.06 in
(1.52 mm)
3/4SM
00:03
Obscured
Light Snow
25°F / -4°C 19°F / -7°C 80% 30.45 in
(1031 mb)
SE 6.9 mph
(SE 11 kph)
0.01 in
(0.25 mm)
3/4SM
Time Weather Temperature Dewpoint Humidity Pressure Winds Precip Visibility


Weather for websites

WeatherForYou.com, LLC is not responsible for any damages or problems caused by this service. Current weather conditions are obtained from the closest station including government and personal stations which may have varying degrees of accuracy. Weather forecasts are derived from the NOAA NDFD. Like all things, this site belongs to Jesus Christ... He just trusts me to maintain it. If you have any questions or comments email webmaster@weatherforyou.com

Copyright © 2015, WeatherForYou.com LLC. All rights reserved.